Location: ??????
(36.0418°N, 43.6351°E)
Time: 05:23:00
(UTC+00:00)

Sakura Rocket - Pass Details

Date: 07 March 2021
Orbit: 476 x 1742 km, 28.7° (Epoch: 20 April)

Event Time Altitude Azimuth Distance (km) Brightness Sun altitude
Exits shadow 02:51:14 - 247° (WSW) 1,903 5.0 -8.2°
Reaches altitude 10° 02:51:38 10° 244° (WSW) 1,766 4.9 -8.1°
Maximum altitude 02:54:44 22° 192° (SSW) 1,097 4.3 -7.5°
Drops below altitude 10° 02:57:37 10° 138° (SE) 1,630 5.9 -6.9°
Sets 03:00:04 0° 123° (ESE) 2,516 7.3 -6.4°
